Regional Weather Roundup
Issued by NWS Little Rock, AR

Home | Current Version | Previous Version | Text Only | Print | Product List | Glossary Off
Versions: 1 2 3 4 5 6 7 8 9 10 11 12 13 14 15 16 17 18 19 20 21 22 23 24 25 26 27 28 29 30 31 32

000
ASUS44 KLZK 201212
RWRLZK

WEATHER ROUNDUP FOR ARKANSAS
NATIONAL WEATHER SERVICE LITTLE ROCK AR
600 AM CST FRI JAN 20 2017

NOTE: "FAIR" INDICATES FEW OR NO CLOUDS BELOW 12,000 FEET WITH NO
SIGNIFICANT WEATHER AND/OR OBSTRUCTIONS TO VISIBILITY.

ARZ001-003-010-029-201300-
NORTHWEST ARKANSAS

CITY           SKY/WX    TMP DP  RH WIND       PRES   REMARKS
FAYETTEVILLE   CLOUDY    50  48  93 SE6       29.58S
6HR MIN TEMP:  42; 6HR MAX TEMP:  50;

FORT SMITH     FOG       44  42  93 NE5       29.59R VSB 1/4
6HR MIN TEMP:  43; 6HR MAX TEMP:  45; 6HR PCP: TRACE;

HARRISON       CLOUDY    43  43 100 CALM      29.62R
6HR MIN TEMP:  40; 6HR MAX TEMP:  47;

BENTONVILLE    CLOUDY   N/A N/A N/A SE7       29.58F
ROGERS         CLOUDY    46  45  96 E6        29.59S
6HR MIN TEMP:  42; 6HR MAX TEMP:  46;

SILOAM SPGS    CLOUDY    48  45  87 SE7       29.57S
6HR MIN TEMP:  45; 6HR MAX TEMP:  48;

HIGHFILL       CLOUDY    48  47  96 SE7       29.57S
6HR MIN TEMP:  39; 6HR MAX TEMP:  48;

SPRINGDALE     CLOUDY    46  46 100 E5        29.60
$$

ARZ004-005-016-201300-
NORTH CENTRAL ARKANSAS

CITY           SKY/WX    TMP DP  RH WIND       PRES   REMARKS
BATESVILLE     CLOUDY    54  48  82 S8G17     29.66F
6HR MIN TEMP:  52; 6HR MAX TEMP:  54;

FLIPPIN        CLOUDY    45  41  87 CALM      29.62R
6HR MIN TEMP:  41; 6HR MAX TEMP:  45;

MTN HOME       CLOUDY    46  46 100 SE3       29.63R
6HR MIN TEMP:  41; 6HR MAX TEMP:  46;

$$

ARZ040-041-201300-
WEST CENTRAL ARKANSAS

CITY           SKY/WX    TMP DP  RH WIND       PRES   REMARKS
MENA           CLOUDY    57  55  94 S3        29.63R
MOUNT IDA      CLOUDY    57  51  80 VRB6      29.61R
6HR MIN TEMP:  55; 6HR MAX TEMP:  57;

$$

ARZ009-017-025-026-028-201300-
NORTHEAST ARKANSAS

CITY           SKY/WX    TMP DP  RH WIND       PRES   REMARKS
CORNING        CLOUDY    50  50 100 S7        29.69R
JONESBORO      CLOUDY    53  51  93 CALM      29.68R
6HR MIN TEMP:  52; 6HR MAX TEMP:  54;

NEWPORT        CLEAR     51  51 100 S7        29.67S FOG
6HR MIN TEMP:  51; 6HR MAX TEMP:  53;

WALNUT RIDGE   CLOUDY    48  46  93 CALM      29.68R
6HR MIN TEMP:  48; 6HR MAX TEMP:  52; 6HR PCP:  0.01;

BLYTHEVILLE    MOCLDY    55  53  93 S7        29.70R
6HR MIN TEMP:  54; 6HR MAX TEMP:  56;

$$

ARZ022-023-033-042-044-201300-
CENTRAL ARKANSAS

CITY           SKY/WX    TMP DP  RH WIND       PRES   REMARKS
LITTLE ROCK    CLOUDY    54  54 100 S6        29.68
6HR MIN TEMP:  53; 6HR MAX TEMP:  55;

N LITTLE ROCK    N/A     54  53  95 CALM      29.69R
6HR MIN TEMP:  53; 6HR MAX TEMP:  54;

JACKSONVILLE   CLOUDY    55  55  99 S3        29.67R
6HR MIN TEMP:  51; 6HR MAX TEMP:  55;

SEARCY         CLOUDY    53  53 100 CALM      29.69S FOG
6HR MIN TEMP:  52; 6HR MAX TEMP:  53;

HOT SPRINGS    CLOUDY    55  54  96 SE6       29.65S
6HR MIN TEMP:  54; 6HR MAX TEMP:  56;

RUSSELLVILLE   CLOUDY    51  49  92 CALM      29.63S
6HR MIN TEMP:  51; 6HR MAX TEMP:  53;

CLINTON        CLOUDY    52  50  93 CALM      29.65F FOG
$$

ARZ036-201300-
EAST ARKANSAS

CITY           SKY/WX    TMP DP  RH WIND       PRES   REMARKS
WEST MEMPHIS   CLOUDY    56  56 100 S8        29.70S
6HR MIN TEMP:  54; 6HR MAX TEMP:  56;

$$

ARZ050-053-066-070-073-201300-
SOUTHWEST ARKANSAS

CITY           SKY/WX    TMP DP  RH WIND       PRES   REMARKS
ARKADELPHIA    CLOUDY    54  54 100 CALM      29.67S FOG
6HR MIN TEMP:  53; 6HR MAX TEMP:  55;

CAMDEN         PTCLDY    55  52  88 S5        29.68S FOG
TEXARKANA      MOCLDY    56  56 100 SW13      29.66R
6HR MIN TEMP:  54; 6HR MAX TEMP:  57;

EL DORADO      PTCLDY    56  55  97 S7        29.68F
6HR MIN TEMP:  55; 6HR MAX TEMP:  58;

DE QUEEN       CLOUDY    56  56 100 S6        29.63R
6HR MIN TEMP:  54; 6HR MAX TEMP:  56;

$$

ARZ056-057-069-201300-
SOUTHEAST ARKANSAS

CITY           SKY/WX    TMP DP  RH WIND       PRES   REMARKS
PINE BLUFF     CLOUDY    56  56 100 S6        29.69R
6HR MIN TEMP:  53; 6HR MAX TEMP:  57;

STUTTGART      CLOUDY    55  48  76 S9        29.70R
6HR MIN TEMP:  54; 6HR MAX TEMP:  55;

MONTICELLO     CLOUDY    59  56  89 S8        29.71R
6HR MIN TEMP:  58; 6HR MAX TEMP:  60;


$$






USA.gov is the U.S. government's official web portal to all federal, state and local government web resources and services.